When you browse on this site, cookies collect data to enhance your experience and personalize the content and advertising you see.
Visit our Privacy Policy to learn more. By continuing to use the site, you agree to this use of cookies and data.
  • In Deutschland
  • Länderverzeichnis
  • Für 7 Tage
  • Wassertemperatur
  • Satellitenkarten
  • Wetterkarte
  • Widgets
  • user-avatar
    Anmelden

    Stündliche Wetter Cataratas del Iguazù

    Heute, 19 Februar, Dienstag

    Zeit Temperatur Niederschläge Wind Luftdruck Luftfeuchtigkeit
    00:00 +22°C° 0 mm 1 m/S 737 mmHg 95%
    01:00 +20°C° 0 mm 0 m/S 737 mmHg 95%
    02:00 +20°C° 0 mm 0 m/S 737 mmHg 96%
    03:00 +20°C° 0 mm 0 m/S 737 mmHg 97%
    04:00 +19°C° 0 mm 0 m/S 737 mmHg 97%
    05:00 +19°C° 0 mm 0 m/S 737 mmHg 97%
    06:00 +23°C° 0 mm 1 m/S 737 mmHg 89%
    07:00 +25°C° 0 mm 1 m/S 738 mmHg 80%
    08:00 +27°C° 0 mm 1 m/S 738 mmHg 74%
    09:00 +28°C° 1.2 mm 1 m/S 738 mmHg 77%
    10:00 +28°C° 1.2 mm 1 m/S 737 mmHg 79%
    11:00 +29°C° 1.2 mm 1 m/S 737 mmHg 81%
    12:00 +32°C° 0.7 mm 1 m/S 737 mmHg 67%
    13:00 +34°C° 0.7 mm 1 m/S 737 mmHg 52%
    14:00 +35°C° 0.7 mm 0 m/S 736 mmHg 38%
    15:00 +33°C° 0 mm 0 m/S 736 mmHg 42%
    16:00 +32°C° 0 mm 0 m/S 736 mmHg 46%
    17:00 +30°C° 0 mm 0 m/S 735 mmHg 50%
    18:00 +29°C° 0 mm 0 m/S 735 mmHg 55%
    19:00 +27°C° 0 mm 0 m/S 736 mmHg 59%
    20:00 +26°C° 0 mm 0 m/S 736 mmHg 64%
    21:00 +27°C° 0 mm 1 m/S 736 mmHg 69%
    22:00 +26°C° 0 mm 1 m/S 737 mmHg 73%
    23:00 +25°C° 0 mm 1 m/S 737 mmHg 78%

    Morgen, 20 Februar, Mittwoch

    Zeit Temperatur Niederschläge Wind Luftdruck Luftfeuchtigkeit
    00:00 +24°C° 0.2 mm 1 m/S 737 mmHg 82%
    01:00 +23°C° 0.2 mm 1 m/S 737 mmHg 86%
    02:00 +23°C° 0.2 mm 1 m/S 737 mmHg 90%
    03:00 +22°C° 0.1 mm 1 m/S 737 mmHg 91%
    04:00 +22°C° 0.1 mm 1 m/S 737 mmHg 92%
    05:00 +20°C° 0.1 mm 0 m/S 737 mmHg 94%
    06:00 +24°C° 0 mm 1 m/S 737 mmHg 85%
    07:00 +26°C° 0 mm 1 m/S 738 mmHg 76%
    08:00 +28°C° 0 mm 1 m/S 738 mmHg 68%
    09:00 +31°C° 0 mm 1 m/S 738 mmHg 57%
    10:00 +33°C° 0 mm 0 m/S 738 mmHg 45%
    11:00 +36°C° 0 mm 0 m/S 738 mmHg 34%
    12:00 +35°C° 0 mm 0 m/S 737 mmHg 36%
    13:00 +34°C° 0 mm 0 m/S 737 mmHg 38%
    14:00 +33°C° 0 mm 0 m/S 736 mmHg 40%
    15:00 +33°C° 0 mm 0 m/S 736 mmHg 41%
    16:00 +32°C° 0 mm 0 m/S 735 mmHg 42%
    17:00 +32°C° 0 mm 0 m/S 735 mmHg 44%
    18:00 +30°C° 0 mm 0 m/S 736 mmHg 47%
    19:00 +29°C° 0 mm 0 m/S 736 mmHg 51%
    20:00 +27°C° 0 mm 0 m/S 736 mmHg 54%
    21:00 +28°C° 0 mm 1 m/S 737 mmHg 60%
    22:00 +27°C° 0 mm 1 m/S 737 mmHg 65%
    23:00 +26°C° 0 mm 1 m/S 737 mmHg 71%

    übermorgen, 21 Februar, Donnerstag

    Zeit Temperatur Niederschläge Wind Luftdruck Luftfeuchtigkeit
    00:00 +26°C° 0 mm 1 m/S 737 mmHg 75%
    01:00 +25°C° 0 mm 1 m/S 737 mmHg 78%
    02:00 +24°C° 0 mm 1 m/S 737 mmHg 82%
    03:00 +24°C° 0 mm 1 m/S 737 mmHg 84%
    04:00 +23°C° 0 mm 1 m/S 737 mmHg 86%
    05:00 +23°C° 0 mm 1 m/S 737 mmHg 88%
    06:00 +25°C° 0 mm 1 m/S 738 mmHg 78%
    07:00 +27°C° 0 mm 1 m/S 738 mmHg 69%
    08:00 +29°C° 0 mm 1 m/S 739 mmHg 60%
    09:00 +32°C° 0 mm 1 m/S 739 mmHg 51%
    10:00 +35°C° 0 mm 1 m/S 739 mmHg 43%
    11:00 +39°C° 0 mm 1 m/S 739 mmHg 34%
    12:00 +37°C° 0 mm 0 m/S 738 mmHg 32%
    13:00 +38°C° 0 mm 0 m/S 738 mmHg 29%
    14:00 +39°C° 0 mm 0 m/S 737 mmHg 27%
    15:00 +38°C° 0 mm 0 m/S 737 mmHg 29%
    16:00 +36°C° 0 mm 0 m/S 736 mmHg 32%
    17:00 +35°C° 0 mm 0 m/S 736 mmHg 34%
    18:00 +33°C° 0 mm 0 m/S 736 mmHg 40%
    19:00 +32°C° 0 mm 1 m/S 737 mmHg 46%
    20:00 +30°C° 0 mm 1 m/S 737 mmHg 52%
    21:00 +29°C° 0 mm 1 m/S 737 mmHg 57%
    22:00 +28°C° 0 mm 1 m/S 738 mmHg 63%
    23:00 +27°C° 0 mm 1 m/S 738 mmHg 69%

    22 Februar, Freitag

    Zeit Temperatur Niederschläge Wind Luftdruck Luftfeuchtigkeit
    00:00 +27°C° 0 mm 1 m/S 738 mmHg 72%
    01:00 +26°C° 0 mm 1 m/S 738 mmHg 74%
    02:00 +25°C° 0 mm 1 m/S 737 mmHg 77%
    03:00 +25°C° 0 mm 1 m/S 737 mmHg 79%
    04:00 +25°C° 0 mm 1 m/S 738 mmHg 81%
    05:00 +24°C° 0 mm 1 m/S 738 mmHg 83%
    06:00 +26°C° 0 mm 1 m/S 738 mmHg 75%
    07:00 +28°C° 0 mm 1 m/S 739 mmHg 68%
    08:00 +30°C° 0 mm 1 m/S 740 mmHg 61%
    09:00 +32°C° 0 mm 2 m/S 739 mmHg 53%
    10:00 +36°C° 0 mm 2 m/S 739 mmHg 46%
    11:00 +38°C° 0 mm 2 m/S 739 mmHg 38%
    12:00 +37°C° 0 mm 1 m/S 738 mmHg 37%
    13:00 +39°C° 0 mm 1 m/S 738 mmHg 35%
    14:00 +40°C° 0 mm 1 m/S 737 mmHg 33%
    15:00 +36°C° 0 mm 0 m/S 737 mmHg 35%
    16:00 +35°C° 0 mm 0 m/S 736 mmHg 36%
    17:00 +34°C° 0 mm 0 m/S 736 mmHg 38%
    18:00 +34°C° 0 mm 1 m/S 736 mmHg 43%
    19:00 +32°C° 0 mm 1 m/S 737 mmHg 48%
    20:00 +30°C° 0 mm 1 m/S 737 mmHg 53%
    21:00 +30°C° 0 mm 1 m/S 737 mmHg 58%
    22:00 +29°C° 0 mm 1 m/S 737 mmHg 63%
    23:00 +28°C° 0 mm 1 m/S 738 mmHg 68%

    23 Februar, Samstag

    Zeit Temperatur Niederschläge Wind Luftdruck Luftfeuchtigkeit
    00:00 +27°C° 0 mm 1 m/S 737 mmHg 71%
    01:00 +27°C° 0 mm 1 m/S 737 mmHg 74%
    02:00 +26°C° 0 mm 1 m/S 736 mmHg 77%
    03:00 +26°C° 0 mm 1 m/S 736 mmHg 79%
    04:00 +25°C° 0 mm 1 m/S 737 mmHg 80%
    05:00 +25°C° 0 mm 1 m/S 737 mmHg 82%
    06:00 +27°C° 0 mm 1 m/S 737 mmHg 75%
    07:00 +29°C° 0 mm 1 m/S 738 mmHg 68%
    08:00 +31°C° 0 mm 2 m/S 738 mmHg 61%
    09:00 +34°C° 0 mm 2 m/S 738 mmHg 53%
    10:00 +36°C° 0 mm 2 m/S 737 mmHg 46%
    11:00 +38°C° 0 mm 2 m/S 737 mmHg 38%
    12:00 +39°C° 0 mm 2 m/S 736 mmHg 35%
    13:00 +40°C° 0 mm 2 m/S 735 mmHg 32%
    14:00 +41°C° 0 mm 2 m/S 734 mmHg 29%
    15:00 +40°C° 0 mm 2 m/S 734 mmHg 32%
    16:00 +39°C° 0 mm 2 m/S 734 mmHg 35%
    17:00 +38°C° 0 mm 2 m/S 733 mmHg 37%
    18:00 +36°C° 0 mm 2 m/S 734 mmHg 43%
    19:00 +35°C° 0 mm 2 m/S 734 mmHg 50%
    20:00 +32°C° 0 mm 2 m/S 734 mmHg 56%
    21:00 +31°C° 0 mm 2 m/S 734 mmHg 59%
    22:00 +31°C° 0 mm 2 m/S 734 mmHg 62%
    23:00 +30°C° 0 mm 2 m/S 735 mmHg 65%

    24 Februar, Sonntag

    Zeit Temperatur Niederschläge Wind Luftdruck Luftfeuchtigkeit
    00:00 +29°C° 0 mm 2 m/S 734 mmHg 68%
    01:00 +29°C° 0 mm 2 m/S 734 mmHg 71%
    02:00 +28°C° 0 mm 2 m/S 734 mmHg 74%
    03:00 +28°C° 0 mm 2 m/S 734 mmHg 75%
    04:00 +28°C° 0 mm 2 m/S 734 mmHg 76%
    05:00 +27°C° 0 mm 2 m/S 734 mmHg 77%
    06:00 +29°C° 0 mm 2 m/S 734 mmHg 71%
    07:00 +30°C° 0 mm 2 m/S 735 mmHg 65%
    08:00 +33°C° 0 mm 3 m/S 735 mmHg 59%
    09:00 +35°C° 0 mm 3 m/S 735 mmHg 52%
    10:00 +37°C° 0 mm 3 m/S 734 mmHg 45%
    11:00 +39°C° 0 mm 3 m/S 734 mmHg 38%
    12:00 +40°C° 0 mm 3 m/S 733 mmHg 36%
    13:00 +40°C° 0 mm 3 m/S 733 mmHg 35%
    14:00 +40°C° 0 mm 2 m/S 732 mmHg 33%
    15:00 +40°C° 0 mm 2 m/S 732 mmHg 33%
    16:00 +40°C° 0 mm 2 m/S 732 mmHg 33%
    17:00 +40°C° 0 mm 1 m/S 732 mmHg 33%
    18:00 +37°C° 0 mm 1 m/S 732 mmHg 39%
    19:00 +34°C° 0 mm 1 m/S 732 mmHg 44%
    20:00 +32°C° 0 mm 1 m/S 732 mmHg 50%
    21:00 +32°C° 0 mm 2 m/S 732 mmHg 52%
    22:00 +32°C° 0 mm 2 m/S 732 mmHg 55%
    23:00 +33°C° 0 mm 3 m/S 732 mmHg 57%
    Mehr zeigen